Home   Weather   Lille   Past weeks

Flag for France Past Weather in Lille, Nord-Pas-de-Calais, France — Yesterday and Last 2 Weeks

Now
45 °F

Light rain. Partly sunny.


Feels Like: 37 °F
Forecast: 35 / 54 °F
Wind: 17 mph from North

Location: Lille Airport

Current Time: Apr 26, 2017 at 2:00:12 pm

Latest Report: Apr 26, 2017 at 1:30 pm


Visibility: N/A

Pressure: 29.95 "Hg

Humidity: 71%

Dew Point: 36 °F

Location of LilleLocation

Past Weather in Lille — Graph

°F

Lille Temperature Yesterday

Maximum temperature yesterday: 52 °F (at 3:00 pm)
Minimum temperature yesterday: 39 °F (at 7:00 am)
Average temperature yesterday: 46 °F

High & Low Weather Summary for the Past Weeks

 TemperatureHumidityPressure
High61 °F (Apr 11, 4:30 pm)100% (Apr 23, 7:00 am)30.66 "Hg (Apr 23, 7:00 am)
Low28 °F (Apr 20, 7:00 am)23% (Apr 20, 7:00 pm)29.80 "Hg (Apr 24, 11:30 pm)
Average48 °F64%30.20 "Hg
* Reported Apr 11 1:00 pm — Apr 26 1:00 pm, Lille, Weather by CustomWeather, © 2017

Note: Actual official high and low records may vary slightly from our data, if they occured in-between our weather recording intervals... More about our weather records

Advertising

Lille Weather History for the Previous 24 Hours

Scroll right to see more
 ConditionsComfort  
Time TempWeatherWind HumidityBarometerVisibility
1:00 pm
Wed, Apr 26
46 °FPartly sunny.8 mph57%29.95 "HgN/A
12:30 pm48 °FPartly sunny.9 mph58%29.95 "HgN/A
11:30 am46 °FBroken clouds.9 mph66%29.95 "HgN/A
11:00 am45 °FPartly sunny.7 mph66%29.95 "HgN/A
10:30 am45 °FBroken clouds.8 mph76%29.95 "HgN/A
10:00 am43 °FBroken clouds.9 mph76%29.95 "HgN/A
9:30 am41 °FLight rain. Partly sunny.12 mph81%29.92 "HgN/A
9:00 am41 °FBroken clouds.9 mph81%29.92 "HgN/A
8:30 am39 °FScattered clouds.7 mph87%29.92 "HgN/A
8:00 am37 °FPartly sunny.7 mph93%29.92 "HgN/A
7:30 am36 °FSunny.6 mph93%29.92 "Hg10 mi
7:00 am34 °FPartly sunny.3 mph93%29.89 "HgN/A
6:30 am34 °FClear.3 mph93%29.89 "Hg10 mi
6:00 am36 °FPassing clouds.6 mph87%29.89 "HgN/A
5:30 am37 °FPassing clouds.5 mph87%29.89 "HgN/A
5:00 am37 °FPartly cloudy.6 mph87%29.89 "HgN/A
4:30 am37 °FPassing clouds.7 mph81%29.89 "HgN/A
4:00 am37 °FPassing clouds.8 mph87%29.89 "HgN/A
3:30 am37 °FPassing clouds.8 mph87%29.89 "HgN/A
3:00 am37 °FPartly cloudy.9 mph87%29.89 "HgN/A
2:30 am37 °FPassing clouds.12 mph81%29.89 "HgN/A
2:00 am37 °FPassing clouds.8 mph75%29.89 "HgN/A
1:30 am36 °FPassing clouds.8 mph75%29.89 "HgN/A
1:00 am37 °FClear.8 mph65%29.89 "Hg10 mi
12:30 am36 °FClear.5 mph70%29.89 "Hg10 mi
12:00 am37 °FClear.3 mph60%29.89 "Hg10 mi
11:30 pm
Tue, Apr 25
39 °FClear.2 mph56%29.89 "Hg10 mi
11:00 pm39 °FClear.2 mph56%29.89 "Hg10 mi
10:30 pm41 °FClear.3 mph53%29.89 "Hg10 mi
10:00 pm43 °FClear.6 mph49%29.89 "Hg10 mi
9:30 pm43 °FClear.7 mph42%29.89 "Hg10 mi
9:00 pm45 °FClear.9 mph39%29.89 "Hg10 mi
8:30 pm46 °FSunny.12 mph37%29.89 "Hg10 mi
8:00 pm46 °FSunny.10 mph34%29.89 "Hg10 mi
7:30 pm46 °FSunny.12 mph40%29.86 "Hg10 mi
7:00 pm48 °FPassing clouds.12 mph40%29.89 "HgN/A
6:30 pm48 °FSunny.16 mph43%29.86 "Hg10 mi
6:00 pm50 °FSunny.15 mph40%29.89 "Hg10 mi
5:30 pm50 °FPassing clouds.13 mph43%29.86 "HgN/A
4:30 pm48 °FScattered clouds.13 mph46%29.89 "HgN/A
4:00 pm52 °FPartly sunny.13 mph41%29.89 "HgN/A
3:30 pm50 °FBroken clouds.12 mph47%29.86 "HgN/A
3:00 pm52 °FBroken clouds.13 mph47%29.86 "HgN/A
2:30 pm50 °FScattered clouds.14 mph47%29.89 "HgN/A
Weather by CustomWeather, © 2017

See weather overviewHow to use our weather pages